Погода в Покровском

Россия / Ростовская область     47°24′08″N   38°54′33″E
В апреле 2022 года жителям России запретили посещать сайт meteo.paraplan.net по решению Генеральной прокуратуры. Аудитория сайта уменьшилась в 10 раз. Владельцы сайта не видят смысла в поддержке погодного сервера в таких условиях. Сайт будет закрыт в октябре.
темп.,
°C
ветер,
м/с
пор.,
м/с
влажн.,
%
обл.,
%
осадки,
мм/ч
давл.,
гПа
погр.,
м
5 октября, ср
ср500:00+12зсз49610 0.0 1019217
03:00+10зсз22681 0.0 102145
06:00+9зсз3470100 0.0 102266
09:00+13з35551 0.0 1023374
12:00+17зюз57420 0.0 10241374
15:00+18зюз67403 0.0 10231724
18:00+15зюз485474 0.0 1024235
21:00+13юз36705 0.0 1025127
6 октября, чт
чт600:00+12зсз36606 0.0 1025126
03:00+11ссз3568100 0.0 1026137
06:00+9сз24705 0.0 102788
09:00+11ссз3461100 0.0 1027427
12:00+15сз3450100 0.0 1026965
15:00+17ссз3344100 0.0 10261237
18:00+15сз22525 0.0 102615
21:00+14ююз22575 0.0 102618
7 октября, пт
пт700:00+12зюз23695 0.0 102748
03:00+12з22735 0.0 102613
06:00+11з22705 0.0 102610
09:00+15з225458 0.0 1026233
12:00+19з224261 0.0 1025869
15:00+20сз233849 0.0 10241298
18:00+18с114666 0.0 102311
21:00+15св376052 0.0 1024140
8 октября, сб
сб800:00+14св376692 0.0 1024144
03:00+12св4973100 0.0 1024193
06:00+12всв51178100 0.0 1024267
09:00+15в61167100 0.0 1024478
12:00+19в7949100 0.0 1023945
15:00+20в7942100 0.0 10211244
18:00+18всв61249100 0.0 1021478
21:00+16всв6145599 0.0 1020452
9 октября, вс
вс900:00+14в51359100 0.0 1020374
03:00+13в51261100 0.0 1019385
06:00+12в5126697 0.0 1019359
09:00+14в61162100 0.0 1018510
12:00+18в6754100 0.0 10171062
15:00+18вюв4655100 0.0 10161239
18:00+17сз1160100 0.0 101615
21:00+17с3460100 0.0 101686